sat.trackr.live / text

‹ back to catalog

STARLINK-35481

NORAD 66247 · 2025-245P

PAYLOAD ACTIVE UNKNOWN

§ Identity

Operator
Country
US
Launch date
2025-10-29
Launch site
AFETR
Launch vehicle
Mass (kg)
RCS (m²)

Purposes: comms

External: N2YO · Heavens-Above · Gunter

§ Orbital elements

Epoch: 2026-09-20T06:02:09.466944Z

Period
94.01 min
Inclination
53.1579°
Eccentricity
0.0000859
Mean motion
15.31714084 rev/d
Perigee alt
470.1 km
Apogee alt
471.3 km
Semi-major
6,848.8 km
B*
3.5983e-4
RAAN
98.8365°
Arg perigee
91.6377°
Mean anomaly
268.4723°
Rev number
5,106

§ Raw data

STARLINK-354811 66247U 25245P   26263.25149846  .00010822  00000+0  35983-3 0  99942 66247  53.1579  98.8365 0000859  91.6377 268.4723 15.31714084 51069

JSON: /api/v1/satellites/66247 · /tle

For live sub-satellite position, see the globe view (requires WebGL).

§ Visibility from observer

Set your observer location to see the next 7 days of passes ≥ 10°. The values pass through the URL so the page stays shareable.

No JS? Fill the form by hand. The geolocation button needs JavaScript.